User: anonymous   Login
Location: Unspecified
(0.0000°N, 0.0000°E)
Time: 18:44:54
(UTC+00:00)
Language:

APRIZESAT 6 - Orbit

View from above orbital plane
View from above orbital plane
View from above satellite
View from above satellite

Ground track
Ground track

The orbit data is extracted from the following two-line orbital elements,

1 37793U 11044F   17145.51479508 +.00000089 +00000-0 +22370-4 0  9991
2 37793 098.2851 273.5358 0047901 145.4079 276.7349 14.72205290309785
Epoch (UTC): 25 May 2017 12:21:18
Eccentricity: 0.0047901
inclination: 98.2851°
perigee height: 620 km
apogee height: 688 km
right ascension of ascending node: 273.5358°
argument of perigee: 145.4079°
revolutions per day: 14.72205290
mean anomaly at epoch: 276.7349°
orbit number at epoch: 30978

The dashed part of the orbit path shows where the satellite is in the earth's shadow,  

DLR